• In Deutschland
  • Länderverzeichnis
  • Für 7 Tage
  • Wassertemperatur
  • Satellitenkarten
  • Wetterkarte
  • Widgets
  • user-avatar
    Anmelden

    Stündliche Wetter Lahi

    Heute, 26 September, Mittwoch

    Zeit Temperatur Niederschläge Wind Luftdruck Luftfeuchtigkeit
    00:00 +2°C° 0 mm 3 m/S 745 mmHg 87%
    01:00 +2°C° 0 mm 3 m/S 746 mmHg 87%
    02:00 +2°C° 0 mm 2 m/S 746 mmHg 93%
    03:00 +2°C° 0 mm 2 m/S 747 mmHg 92%
    04:00 +1°C° 0 mm 3 m/S 747 mmHg 91%
    05:00 0°C° 0 mm 3 m/S 748 mmHg 91%
    06:00 +1°C° 0 mm 3 m/S 748 mmHg 86%
    07:00 +2°C° 0 mm 3 m/S 749 mmHg 81%
    08:00 +3°C° 0 mm 3 m/S 749 mmHg 76%
    09:00 +5°C° 0 mm 4 m/S 749 mmHg 70%
    10:00 +7°C° 0 mm 4 m/S 750 mmHg 64%
    11:00 +8°C° 0 mm 4 m/S 750 mmHg 59%
    12:00 +10°C° 0 mm 4 m/S 749 mmHg 57%
    13:00 +10°C° 0 mm 5 m/S 749 mmHg 55%
    14:00 +10°C° 0 mm 5 m/S 749 mmHg 53%
    15:00 +10°C° 0 mm 4 m/S 748 mmHg 57%
    16:00 +8°C° 0 mm 4 m/S 748 mmHg 60%
    17:00 +8°C° 0 mm 4 m/S 747 mmHg 64%
    18:00 +7°C° 0 mm 4 m/S 747 mmHg 63%
    19:00 +7°C° 0 mm 5 m/S 746 mmHg 61%
    20:00 +7°C° 0 mm 5 m/S 746 mmHg 60%
    21:00 +5°C° 0.1 mm 6 m/S 745 mmHg 62%
    22:00 +5°C° 0.1 mm 7 m/S 744 mmHg 64%
    23:00 +5°C° 0.1 mm 7 m/S 743 mmHg 66%

    Morgen, 27 September, Donnerstag

    Zeit Temperatur Niederschläge Wind Luftdruck Luftfeuchtigkeit
    00:00 +5°C° 0.4 mm 8 m/S 742 mmHg 71%
    01:00 +4°C° 0.4 mm 8 m/S 741 mmHg 75%
    02:00 +3°C° 0.4 mm 9 m/S 740 mmHg 80%
    03:00 +3°C° 0.7 mm 9 m/S 739 mmHg 83%
    04:00 +3°C° 0.7 mm 9 m/S 738 mmHg 85%
    05:00 +5°C° 0.7 mm 9 m/S 738 mmHg 88%
    06:00 +5°C° 0.4 mm 8 m/S 737 mmHg 89%
    07:00 +5°C° 0.4 mm 8 m/S 737 mmHg 89%
    08:00 +6°C° 0.4 mm 8 m/S 737 mmHg 90%
    09:00 +8°C° 0.1 mm 7 m/S 738 mmHg 88%
    10:00 +8°C° 0.1 mm 7 m/S 738 mmHg 85%
    11:00 +9°C° 0.1 mm 7 m/S 738 mmHg 83%
    12:00 +10°C° 0.1 mm 7 m/S 738 mmHg 77%
    13:00 +11°C° 0.1 mm 7 m/S 738 mmHg 70%
    14:00 +12°C° 0.1 mm 7 m/S 738 mmHg 64%
    15:00 +11°C° 0.1 mm 6 m/S 739 mmHg 67%
    16:00 +12°C° 0.1 mm 5 m/S 739 mmHg 70%
    17:00 +11°C° 0.1 mm 4 m/S 739 mmHg 73%
    18:00 +10°C° 0 mm 4 m/S 739 mmHg 74%
    19:00 +8°C° 0 mm 4 m/S 740 mmHg 75%
    20:00 +7°C° 0 mm 4 m/S 740 mmHg 77%
    21:00 +7°C° 0 mm 4 m/S 740 mmHg 79%
    22:00 +7°C° 0 mm 4 m/S 740 mmHg 81%
    23:00 +6°C° 0 mm 4 m/S 740 mmHg 83%

    übermorgen, 28 September, Freitag

    Zeit Temperatur Niederschläge Wind Luftdruck Luftfeuchtigkeit
    00:00 +6°C° 0 mm 4 m/S 740 mmHg 85%
    01:00 +6°C° 0 mm 4 m/S 740 mmHg 88%
    02:00 +6°C° 0 mm 4 m/S 739 mmHg 91%
    03:00 +7°C° 0 mm 5 m/S 739 mmHg 90%
    04:00 +7°C° 0 mm 6 m/S 738 mmHg 89%
    05:00 +8°C° 0 mm 6 m/S 737 mmHg 88%
    06:00 +8°C° 0 mm 7 m/S 737 mmHg 88%
    07:00 +9°C° 0 mm 8 m/S 736 mmHg 88%
    08:00 +10°C° 0 mm 8 m/S 736 mmHg 88%
    09:00 +11°C° 0.1 mm 8 m/S 735 mmHg 87%
    10:00 +11°C° 0.1 mm 8 m/S 735 mmHg 87%
    11:00 +12°C° 0.1 mm 8 m/S 734 mmHg 87%
    12:00 +12°C° 0.4 mm 8 m/S 734 mmHg 86%
    13:00 +12°C° 0.4 mm 8 m/S 734 mmHg 86%
    14:00 +12°C° 0.4 mm 8 m/S 734 mmHg 86%
    15:00 +11°C° 0.3 mm 7 m/S 735 mmHg 84%
    16:00 +10°C° 0.3 mm 6 m/S 736 mmHg 82%
    17:00 +10°C° 0.3 mm 4 m/S 736 mmHg 81%
    18:00 +8°C° 0 mm 4 m/S 737 mmHg 84%
    19:00 +7°C° 0 mm 3 m/S 738 mmHg 87%
    20:00 +6°C° 0 mm 2 m/S 739 mmHg 90%
    21:00 +5°C° 0 mm 2 m/S 739 mmHg 90%
    22:00 +6°C° 0 mm 1 m/S 740 mmHg 91%
    23:00 +5°C° 0 mm 1 m/S 740 mmHg 91%

    29 September, Samstag

    Zeit Temperatur Niederschläge Wind Luftdruck Luftfeuchtigkeit
    00:00 +5°C° 0 mm 1 m/S 741 mmHg 91%
    01:00 +5°C° 0 mm 1 m/S 741 mmHg 91%
    02:00 +4°C° 0 mm 1 m/S 742 mmHg 91%
    03:00 +4°C° 0 mm 1 m/S 742 mmHg 91%
    04:00 +4°C° 0 mm 1 m/S 742 mmHg 91%
    05:00 +4°C° 0 mm 1 m/S 742 mmHg 91%
    06:00 +5°C° 0 mm 1 m/S 743 mmHg 87%
    07:00 +6°C° 0 mm 1 m/S 743 mmHg 84%
    08:00 +7°C° 0 mm 1 m/S 743 mmHg 80%
    09:00 +9°C° 0 mm 1 m/S 744 mmHg 75%
    10:00 +10°C° 0 mm 1 m/S 744 mmHg 70%
    11:00 +11°C° 0 mm 1 m/S 744 mmHg 65%
    12:00 +11°C° 0.1 mm 1 m/S 744 mmHg 66%
    13:00 +10°C° 0.1 mm 2 m/S 745 mmHg 66%
    14:00 +10°C° 0.1 mm 2 m/S 745 mmHg 67%
    15:00 +9°C° 0.1 mm 2 m/S 745 mmHg 71%
    16:00 +9°C° 0.1 mm 1 m/S 745 mmHg 76%
    17:00 +9°C° 0.1 mm 1 m/S 745 mmHg 80%
    18:00 +8°C° 0 mm 1 m/S 746 mmHg 82%
    19:00 +7°C° 0 mm 1 m/S 746 mmHg 84%
    20:00 +5°C° 0 mm 2 m/S 747 mmHg 86%
    21:00 +5°C° 0 mm 1 m/S 747 mmHg 86%
    22:00 +5°C° 0 mm 1 m/S 748 mmHg 86%
    23:00 +4°C° 0 mm 1 m/S 748 mmHg 86%

    30 September, Sonntag

    Zeit Temperatur Niederschläge Wind Luftdruck Luftfeuchtigkeit
    00:00 +4°C° 0 mm 1 m/S 748 mmHg 85%
    01:00 +3°C° 0 mm 1 m/S 748 mmHg 85%
    02:00 +3°C° 0 mm 1 m/S 749 mmHg 85%
    03:00 +3°C° 0 mm 1 m/S 749 mmHg 85%
    04:00 +2°C° 0 mm 0 m/S 749 mmHg 85%
    05:00 +1°C° 0 mm 0 m/S 749 mmHg 85%
    06:00 +3°C° 0 mm 0 m/S 749 mmHg 81%
    07:00 +4°C° 0 mm 0 m/S 749 mmHg 77%
    08:00 +6°C° 0 mm 1 m/S 750 mmHg 73%
    09:00 +8°C° 0 mm 1 m/S 750 mmHg 67%
    10:00 +8°C° 0 mm 2 m/S 750 mmHg 61%
    11:00 +10°C° 0 mm 2 m/S 750 mmHg 56%
    12:00 +10°C° 0 mm 3 m/S 749 mmHg 54%
    13:00 +11°C° 0 mm 3 m/S 749 mmHg 53%
    14:00 +11°C° 0 mm 3 m/S 749 mmHg 51%
    15:00 +10°C° 0 mm 3 m/S 749 mmHg 57%
    16:00 +9°C° 0 mm 2 m/S 748 mmHg 62%
    17:00 +8°C° 0 mm 2 m/S 748 mmHg 68%
    18:00 +7°C° 0 mm 2 m/S 748 mmHg 71%
    19:00 +6°C° 0 mm 2 m/S 748 mmHg 75%
    20:00 +5°C° 0 mm 2 m/S 748 mmHg 78%
    21:00 +4°C° 0 mm 2 m/S 748 mmHg 79%
    22:00 +4°C° 0 mm 2 m/S 748 mmHg 80%
    23:00 +4°C° 0 mm 2 m/S 748 mmHg 81%

    1 Oktober, Montag

    Zeit Temperatur Niederschläge Wind Luftdruck Luftfeuchtigkeit
    00:00 +4°C° 0 mm 2 m/S 748 mmHg 82%
    01:00 +3°C° 0 mm 2 m/S 748 mmHg 82%
    02:00 +3°C° 0 mm 2 m/S 748 mmHg 83%
    03:00 +3°C° 0 mm 2 m/S 748 mmHg 84%
    04:00 +3°C° 0 mm 2 m/S 747 mmHg 85%
    05:00 +2°C° 0 mm 2 m/S 747 mmHg 85%
    06:00 +4°C° 0 mm 2 m/S 747 mmHg 81%
    07:00 +5°C° 0 mm 2 m/S 747 mmHg 76%
    08:00 +6°C° 0 mm 2 m/S 747 mmHg 72%
    09:00 +8°C° 0 mm 3 m/S 747 mmHg 66%
    10:00 +9°C° 0 mm 3 m/S 747 mmHg 60%
    11:00 +11°C° 0 mm 3 m/S 747 mmHg 54%
    12:00 +12°C° 0 mm 3 m/S 747 mmHg 53%
    13:00 +12°C° 0 mm 3 m/S 746 mmHg 52%
    14:00 +13°C° 0 mm 3 m/S 746 mmHg 50%
    15:00 +12°C° 0 mm 2 m/S 746 mmHg 56%
    16:00 +10°C° 0 mm 2 m/S 745 mmHg 61%
    17:00 +10°C° 0 mm 1 m/S 745 mmHg 67%
    18:00 +8°C° 0 mm 2 m/S 745 mmHg 70%
    19:00 +7°C° 0 mm 2 m/S 745 mmHg 72%
    20:00 +6°C° 0 mm 2 m/S 745 mmHg 75%
    21:00 +6°C° 0 mm 2 m/S 745 mmHg 76%
    22:00 +5°C° 0 mm 2 m/S 745 mmHg 77%
    23:00 +5°C° 0 mm 2 m/S 745 mmHg 79%
    Mehr zeigen